FW0954 Weather Reports


Display with metric or nautical units.
time (UTC)temp
F
wind
direction
speed
MPH
gust
MPH
rain 1hr
in
rain 24hr
in
rain mn
in
humidity
%
barometer
mb
20260510180002 64 102 1.0 5.0 0.74 0.77 0.77 96 1016.9
20260510175502 64 89 1.0 5.0 0.73 0.76 0.76 96 1016.9
20260510174503 64 69 2.0 8.0 0.70 0.73 0.73 94 1017.4
20260510174002 64 54 2.0 8.0 0.66 0.69 0.69 94 1017.2
20260510173503 65 46 3.0 8.0 0.44 0.47 0.47 93 1017.2
20260510173002 66 51 3.0 7.0 0.33 0.36 0.36 90 1017.4
20260510172502 67 48 3.0 6.0 0.08 0.11 0.11 87 1017.5
20260510172002 69 37 4.0 7.0 0.02 0.05 0.05 83 1017.4
20260510171502 70 32 4.0 11.0 0.00 0.03 0.03 78 1017.1
20260510171002 73 32 3.0 11.0 0.00 0.03 0.03 72 1016.8
20260510170502 77 39 2.0 7.0 0.00 0.03 0.03 67 1017.0
20260510170002 80 152 0.0 5.0 0.00 0.03 0.03 71 1016.7
20260510165502 81 168 1.0 5.0 0.00 0.03 0.03 70 1015.8
20260510165002 81 167 1.0 6.0 0.00 0.03 0.03 70 1015.5
20260510164002 82 173 3.0 9.0 0.00 0.03 0.03 69 1015.2
20260510163502 82 177 4.0 11.0 0.00 0.03 0.03 68 1015.0
20260510163003 82 183 5.0 12.0 0.00 0.03 0.03 68 1014.8
20260510162503 82 176 5.0 12.0 0.00 0.03 0.03 68 1014.8
20260510162002 82 177 4.0 10.0 0.00 0.03 0.03 68 1014.6
20260510161502 81 191 5.0 14.0 0.00 0.03 0.03 68 1014.5
20260510161002 81 191 5.0 14.0 0.00 0.03 0.03 68 1014.5
20260510160503 80 177 4.0 10.0 0.00 0.03 0.03 69 1014.2
20260510155502 79 184 5.0 12.0 0.00 0.03 0.03 68 1013.9
20260510155003 79 173 5.0 14.0 0.00 0.03 0.03 69 1013.9
20260510154502 79 176 4.0 14.0 0.00 0.03 0.03 69 1013.9
20260510154002 79 184 3.0 12.0 0.00 0.03 0.03 71 1014.0
20260510153003 77 179 4.0 12.0 0.00 0.03 0.03 72 1013.8
20260510152502 76 178 4.0 12.0 0.00 0.03 0.03 73 1013.8
20260510152003 76 173 4.0 14.0 0.00 0.03 0.03 74 1013.9
20260510151503 75 176 4.0 14.0 0.00 0.03 0.03 74 1013.8
20260510151003 75 177 4.0 9.0 0.00 0.03 0.03 74 1013.8
20260510150502 75 172 3.0 10.0 0.00 0.03 0.03 75 1013.7
20260510145002 73 173 3.0 10.0 0.00 0.03 0.03 81 1013.7
20260510144503 72 175 4.0 10.0 0.00 0.03 0.03 81 1013.8
20260510144003 71 170 4.0 10.0 0.00 0.03 0.03 82 1013.9
20260510143503 70 162 3.0 12.0 0.00 0.03 0.03 83 1013.9
20260510143003 70 167 3.0 12.0 0.00 0.03 0.03 84 1014.1
20260510142502 69 175 3.0 10.0 0.00 0.03 0.03 85 1014.3
20260510142003 68 174 3.0 8.0 0.00 0.03 0.03 86 1014.4
20260510141503 68 168 2.0 7.0 0.00 0.03 0.03 87 1014.6
20260510141002 68 171 2.0 7.0 0.00 0.03 0.03 87 1014.9
20260510140502 67 170 1.0 5.0 0.00 0.03 0.03 88 1015.1
20260510135503 67 178 1.0 5.0 0.00 0.03 0.03 88 1015.4
20260510135003 67 178 2.0 5.0 0.00 0.03 0.03 89 1015.5
20260510134503 66 171 1.0 5.0 0.00 0.03 0.03 89 1015.4
20260510134003 66 165 1.0 5.0 0.00 0.03 0.03 89 1015.3
20260510133502 66 162 1.0 5.0 0.00 0.03 0.03 90 1015.3
20260510133003 66 162 1.0 5.0 0.00 0.03 0.03 90 1015.2
20260510132503 66 164 1.0 3.0 0.00 0.03 0.03 91 1015.1
20260510132002 66 166 1.0 4.0 0.00 0.03 0.03 91 1014.9
20260510131503 66 155 1.0 4.0 0.00 0.03 0.03 92 1014.9
20260510131002 66 134 1.0 3.0 0.00 0.03 0.03 92 1014.8
20260510130003 66 128 1.0 4.0 0.00 0.03 0.03 92 1014.8
20260510125502 65 141 1.0 3.0 0.00 0.03 0.03 93 1014.6
20260510125003 65 157 1.0 5.0 0.00 0.03 0.03 93 1014.6
20260510124503 65 162 1.0 5.0 0.00 0.03 0.03 93 1014.7
20260510123503 65 143 0.0 3.0 0.00 0.03 0.03 94 1014.6
20260510123003 65 130 0.0 2.0 0.00 0.03 0.03 94 1014.6
20260510122502 65 0 0.0 0.0 0.00 0.03 0.03 94 1014.6
20260510122003 64 153 0.0 3.0 0.00 0.03 0.03 94 1014.6
20260510121002 64 70 0.0 3.0 0.00 0.03 0.03 94 1014.5
20260510120503 64 90 1.0 4.0 0.00 0.03 0.03 94 1014.4
20260510120003 64 106 0.0 4.0 0.00 0.03 0.03 94 1014.2
20260510115003 64 117 0.0 2.0 0.00 0.03 0.03 94 1014.1
20260510114503 64 122 0.0 2.0 0.00 0.03 0.03 94 1014.2
20260510114002 64 136 0.0 3.0 0.00 0.03 0.03 94 1014.2
20260510113503 64 140 0.0 3.0 0.00 0.03 0.03 94 1014.1
20260510113003 64 141 0.0 3.0 0.00 0.03 0.03 94 1014.2
20260510112002 64 126 0.0 1.0 0.00 0.03 0.03 94 1014.2
20260510111503 65 141 0.0 3.0 0.00 0.03 0.03 94 1014.2
20260510111003 65 146 0.0 3.0 0.00 0.03 0.03 94 1013.9
20260510110503 65 0 0.0 0.0 0.00 0.03 0.03 93 1014.0
20260510105503 65 171 0.0 1.0 0.03 0.03 0.03 93 1013.9
20260510105003 65 144 0.0 3.0 0.03 0.03 0.03 93 1013.8
20260510104503 65 135 1.0 3.0 0.03 0.03 0.03 93 1013.5
20260510104003 65 139 1.0 6.0 0.03 0.03 0.03 93 1013.4
20260510103503 65 149 1.0 6.0 0.03 0.03 0.03 93 1013.5
20260510102503 65 90 2.0 9.0 0.03 0.03 0.03 92 1013.7
20260510102002 66 84 2.0 9.0 0.03 0.03 0.03 91 1013.7
20260510101503 66 85 2.0 8.0 0.03 0.03 0.03 91 1013.3
20260510101003 66 94 2.0 8.0 0.03 0.03 0.03 90 1013.2
20260510100503 67 87 3.0 7.0 0.02 0.02 0.02 89 1013.5
20260510100003 68 71 3.0 8.0 0.02 0.02 0.02 86 1013.7
20260510095003 71 46 2.0 5.0 0.00 0.00 0.00 80 1015.2
20260510094003 72 49 2.0 12.0 0.00 0.00 0.00 79 1014.6
20260510093503 72 58 3.0 13.0 0.00 0.00 0.00 80 1014.3
20260510093003 72 59 2.0 13.0 0.00 0.00 0.00 82 1013.7
20260510092503 74 68 1.0 6.0 0.00 0.00 0.00 90 1013.7
20260510092003 74 83 1.0 4.0 0.00 0.00 0.00 92 1013.5
20260510091503 74 95 0.0 4.0 0.00 0.00 0.00 92 1013.4
20260510090503 74 101 0.0 1.0 0.00 0.00 0.00 92 1013.2
20260510090003 74 102 0.0 2.0 0.00 0.00 0.00 92 1012.8
20260510084003 74 135 0.0 2.0 0.00 0.00 0.00 92 1012.1
20260510083503 74 0 0.0 0.0 0.00 0.00 0.00 92 1012.1
20260510083003 73 0 0.0 0.0 0.00 0.00 0.00 92 1012.2
20260510082003 73 0 0.0 0.0 0.00 0.00 0.00 91 1011.8
20260510081003 73 128 0.0 1.0 0.00 0.00 0.00 91 1011.2
20260510080503 73 128 0.0 1.0 0.00 0.00 0.00 90 1011.1
20260510075503 73 127 0.0 1.0 0.00 0.00 0.00 90 1010.9
20260510075003 74 126 0.0 1.0 0.00 0.00 0.00 90 1011.0
20260510074503 74 147 0.0 2.0 0.00 0.00 0.00 90 1010.7
20260510073003 74 147 0.0 1.0 0.00 0.00 0.00 89 1010.5
20260510072503 74 0 0.0 0.0 0.00 0.00 0.00 88 1010.8
20260510072003 74 0 0.0 0.0 0.00 0.00 0.00 87 1010.9
20260510071504 74 0 0.0 0.0 0.00 0.00 0.00 87 1011.2
20260510071003 74 0 0.0 0.0 0.00 0.00 0.00 87 1011.3
20260510070503 74 0 0.0 0.0 0.00 0.00 0.00 87 1011.5
20260510070003 75 0 0.0 0.0 0.00 0.00 0.00 87 1011.7
20260510065503 75 0 0.0 0.0 0.00 0.00 0.00 87 1011.6
20260510065004 75 0 0.0 0.0 0.00 0.00 0.00 87 1011.6
20260510064504 75 0 0.0 0.0 0.00 0.00 0.00 86 1011.6
20260510064003 75 0 0.0 0.0 0.00 0.00 0.00 86 1011.6
20260510063503 75 0 0.0 0.0 0.00 0.00 0.00 86 1011.7
20260510063003 75 0 0.0 0.0 0.00 0.00 0.00 86 1011.6
20260510062504 75 156 0.0 1.0 0.00 0.00 0.00 85 1011.1
20260510062004 75 169 1.0 2.0 0.00 0.00 0.00 85 1010.7
20260510061503 75 160 1.0 4.0 0.00 0.00 0.00 85 1010.3
20260510061003 75 159 2.0 6.0 0.00 0.00 0.00 85 1010.0
20260510060003 75 161 1.0 6.0 0.00 0.00 0.00 86 1009.8
20260510055504 75 155 1.0 4.0 0.00 0.00 0.00 86 1009.8
20260510055004 75 156 1.0 4.0 0.00 0.00 0.00 86 1009.7
20260510054003 75 156 1.0 5.0 0.00 0.00 0.00 87 1009.6
20260510053503 75 146 1.0 5.0 0.00 0.00 0.00 87 1009.6
20260510053003 75 138 1.0 5.0 0.00 0.00 0.00 87 1009.6
20260510052503 75 133 1.0 4.0 0.00 0.00 0.00 87 1009.7
20260510052003 75 135 1.0 5.0 0.00 0.00 0.00 87 1009.8
20260510051004 75 136 1.0 3.0 0.00 0.00 0.00 87 1009.5
20260510050503 75 149 1.0 3.0 0.00 0.00 0.00 87 1009.4
20260510050004 75 145 1.0 4.0 0.00 0.00 0.00 87 1009.3
20260510045504 75 144 1.0 5.0 0.00 0.00 0.00 86 1009.2
20260510045003 75 143 1.0 5.0 0.00 0.00 0.00 86 1009.2
20260510044001 75 131 1.0 4.0 0.00 0.00 0.00 86 1009.1
20260510043501 75 116 0.0 4.0 0.00 0.00 0.00 85 1009.2
20260510043001 74 114 0.0 3.0 0.00 0.00 0.00 85 1009.2
20260510042001 74 130 0.0 1.0 0.00 0.00 0.00 83 1009.4
20260510041501 74 147 0.0 1.0 0.00 0.00 0.00 82 1009.5
20260510041001 75 148 0.0 1.0 0.00 0.00 0.00 82 1009.5
20260510035501 75 161 0.0 2.0 0.00 0.00 0.00 81 1009.3
20260510035001 75 147 0.0 2.0 0.00 0.00 0.00 81 1009.4
20260510034501 75 135 0.0 2.0 0.00 0.00 0.00 81 1009.3
20260510033502 75 184 0.0 2.0 0.00 0.00 0.00 81 1009.4
20260510032501 74 137 0.0 1.0 0.00 0.00 0.00 81 1009.5
20260510032002 75 115 0.0 1.0 0.00 0.00 0.00 81 1009.4
20260510031501 75 115 0.0 1.0 0.00 0.00 0.00 80 1009.4
20260510031001 75 107 0.0 1.0 0.00 0.00 0.00 80 1009.4
20260510030501 75 106 0.0 1.0 0.00 0.00 0.00 80 1009.4
20260510030002 75 107 0.0 3.0 0.00 0.00 0.00 79 1009.4
20260510025501 75 109 0.0 3.0 0.00 0.00 0.00 80 1009.4
20260510025002 75 118 0.0 1.0 0.00 0.00 0.00 79 1009.4
20260510024501 75 117 0.0 1.0 0.00 0.00 0.00 79 1009.3
20260510024002 75 0 0.0 0.0 0.00 0.00 0.00 79 1009.2
20260510023502 76 0 0.0 0.0 0.00 0.00 0.00 78 1009.2
20260510022501 76 94 0.0 1.0 0.00 0.00 0.00 78 1009.1
20260510022002 76 94 0.0 1.0 0.00 0.00 0.00 78 1009.1
20260510021001 77 62 0.0 1.0 0.00 0.00 0.00 77 1008.9
20260510020502 77 0 0.0 0.0 0.00 0.00 0.00 76 1008.9
20260510020001 77 0 0.0 0.0 0.00 0.00 0.00 76 1008.9
20260510015502 78 62 0.0 1.0 0.00 0.00 0.00 75 1008.8
20260510014001 79 0 0.0 0.0 0.00 0.00 0.00 73 1008.7
20260510013502 79 108 0.0 1.0 0.00 0.00 0.00 73 1008.6
20260510013002 80 86 0.0 2.0 0.00 0.00 0.00 72 1008.4
20260510012501 80 102 0.0 2.0 0.00 0.00 0.00 71 1008.5
20260510012001 80 99 0.0 3.0 0.00 0.00 0.00 70 1008.5
20260510011501 81 81 0.0 3.0 0.00 0.00 0.00 68 1008.5
20260510011002 82 137 0.0 1.0 0.00 0.00 0.00 66 1008.3
20260510010501 82 137 0.0 1.0 0.00 0.00 0.00 65 1008.3
20260510010001 83 139 0.0 1.0 0.00 0.00 0.00 61 1008.3
20260510005502 85 0 0.0 0.0 0.00 0.00 0.00 59 1008.2
20260510005001 86 0 0.0 0.0 0.00 0.00 0.00 57 1008.3
20260510003502 90 139 0.0 1.0 0.00 0.00 0.00 53 1008.2
20260510003003 90 0 0.0 0.0 0.00 0.00 0.00 52 1008.3
20260510002502 91 0 0.0 0.0 0.00 0.00 0.00 51 1008.3
20260510002002 92 0 0.0 0.0 0.00 0.00 0.00 51 1008.2
20260510001001 92 139 0.0 1.0 0.00 0.00 0.00 50 1008.3
20260510000502 91 139 0.0 1.0 0.00 0.00 0.00 51 1008.3
20260510000001 91 139 0.0 1.0 0.00 0.00 0.00 50 1008.2
20260509235502 91 139 0.0 1.0 0.00 0.00 0.00 51 1008.1
20260509235002 91 139 0.0 1.0 0.00 0.00 0.00 51 1008.1
20260509234501 91 139 0.0 1.0 0.00 0.00 0.00 52 1008.1
20260509234002 91 139 0.0 1.0 0.00 0.00 0.00 51 1008.1
20260509233502 91 132 0.0 1.0 0.00 0.00 0.00 52 1008.1
20260509232502 90 128 0.0 2.0 0.00 0.00 0.00 51 1008.1
20260509232001 91 130 0.0 3.0 0.00 0.00 0.00 51 1008.1
20260509231502 91 115 0.0 3.0 0.00 0.00 0.00 50 1008.1
20260509231001 91 92 0.0 1.0 0.00 0.00 0.00 51 1008.2
20260509230502 90 125 0.0 1.0 0.00 0.00 0.00 51 1008.2
20260509230003 90 124 0.0 2.0 0.00 0.00 0.00 50 1008.1
20260509225502 91 124 0.0 2.0 0.00 0.00 0.00 51 1008.2
20260509225002 91 160 0.0 1.0 0.00 0.00 0.00 51 1008.2
20260509224502 92 121 0.0 1.0 0.00 0.00 0.00 49 1008.1
20260509224002 92 90 0.0 1.0 0.00 0.00 0.00 51 1008.1
20260509223001 91 96 0.0 1.0 0.00 0.00 0.00 52 1008.0
20260509222502 91 99 0.0 1.0 0.00 0.00 0.00 50 1008.0
20260509222001 91 91 0.0 2.0 0.00 0.00 0.00 51 1008.1
20260509221502 91 100 0.0 2.0 0.00 0.00 0.00 51 1008.1
20260509220501 91 128 0.0 2.0 0.00 0.00 0.00 54 1008.1
20260509215502 91 47 0.0 2.0 0.00 0.00 0.00 55 1008.1
20260509215001 91 82 0.0 2.0 0.00 0.00 0.00 54 1008.2
20260509214502 90 108 0.0 2.0 0.00 0.00 0.00 54 1008.2
20260509214001 90 115 0.0 2.0 0.00 0.00 0.00 55 1008.2
20260509213501 90 109 0.0 3.0 0.00 0.00 0.00 57 1008.2
20260509213002 90 122 0.0 3.0 0.00 0.00 0.00 57 1008.4
20260509212502 90 124 0.0 3.0 0.00 0.00 0.00 57 1008.4
20260509212002 90 117 0.0 3.0 0.00 0.00 0.00 58 1008.6
20260509211502 90 120 0.0 3.0 0.00 0.00 0.00 57 1008.6
20260509211002 90 114 0.0 2.0 0.00 0.00 0.00 57 1008.6
20260509210002 90 78 0.0 2.0 0.00 0.00 0.00 61 1008.7
20260509205502 90 86 0.0 2.0 0.00 0.00 0.00 60 1008.9
20260509205001 90 109 0.0 3.0 0.00 0.00 0.00 61 1008.9
20260509204502 90 117 0.0 3.0 0.00 0.00 0.00 59 1009.1
20260509204001 89 117 1.0 3.0 0.00 0.00 0.00 61 1009.1
20260509203502 89 115 1.0 3.0 0.00 0.00 0.00 61 1009.2
20260509203002 90 114 0.0 3.0 0.00 0.00 0.00 61 1009.3
20260509202502 90 122 0.0 1.0 0.00 0.00 0.00 62 1009.3
20260509202002 89 101 0.0 2.0 0.00 0.00 0.00 63 1009.4
20260509201503 89 270 0.0 3.0 0.00 0.00 0.00 62 1009.4
20260509201002 89 261 0.0 3.0 0.00 0.00 0.00 63 1009.5
20260509200002 89 12 0.0 2.0 0.00 0.00 0.00 65 1009.5
20260509195002 88 100 0.0 2.0 0.00 0.00 0.00 65 1009.5
20260509194502 88 89 0.0 2.0 0.00 0.00 0.00 65 1009.6
20260509194002 88 92 0.0 2.0 0.00 0.00 0.00 68 1009.6
20260509193502 88 91 0.0 3.0 0.00 0.00 0.00 68 1009.6
20260509193002 87 81 0.0 3.0 0.00 0.00 0.00 67 1009.7
20260509192502 88 39 0.0 3.0 0.00 0.00 0.00 67 1009.6
20260509191002 88 104 0.0 5.0 0.00 0.00 0.00 67 1009.9
20260509190002 88 139 0.0 3.0 0.00 0.00 0.00 66 1009.9
20260509185502 87 115 0.0 3.0 0.00 0.00 0.00 69 1010.0
20260509185002 87 99 1.0 4.0 0.00 0.00 0.00 69 1009.9
20260509184502 87 61 0.0 4.0 0.00 0.00 0.00 68 1009.9
20260509184002 87 15 1.0 3.0 0.00 0.00 0.00 69 1009.9
20260509183502 86 37 0.0 2.0 0.00 0.00 0.00 69 1009.8
20260509181502 86 87 0.0 3.0 0.00 0.00 0.00 71 1010.1
20260509181002 86 66 0.0 3.0 0.00 0.00 0.00 70 1010.1
20260509180502 86 50 0.0 2.0 0.00 0.00 0.00 70 1010.2